GW4712 Weather Reports


Display with metric or nautical units.
time (UTC)temp
F
wind
direction
speed
MPH
gust
MPH
rain 1hr
in
rain 24hr
in
rain mn
in
humidity
%
barometer
mb
20260905154539 75 89 0.0 0.0 0.00 0.41 0.41 89 1015.7
20260905154034 74 256 0.0 0.0 0.00 0.41 0.41 90 1015.7
20260905153530 73 281 0.0 0.0 0.00 0.41 0.41 93 1015.6
20260905153030 73 330 0.0 0.0 0.00 0.41 0.41 93 1015.7
20260905152525 73 320 0.0 0.0 0.00 0.41 0.41 95 1015.9
20260905152020 72 355 0.0 0.0 0.00 0.41 0.41 96 1016.2
20260905151515 72 355 0.0 0.0 0.00 0.41 0.41 97 1016.1
20260905151010 72 250 0.0 0.0 0.00 0.41 0.41 96 1016.3
20260905150505 72 9 0.0 0.0 0.00 0.41 0.41 97 1016.4
20260905150002 72 359 0.0 0.0 0.00 0.41 0.41 98 1016.4
20260905145457 72 4 0.0 0.0 0.00 0.41 0.41 98 1016.4
20260905144956 72 10 0.0 0.0 0.00 0.41 0.41 98 1016.3
20260905144452 73 7 0.0 0.0 0.00 0.41 0.41 98 1016.1
20260905143950 72 303 0.0 0.0 0.00 0.41 0.41 98 1015.5
20260905143449 72 306 0.0 0.0 0.00 0.41 0.41 99 1015.1
20260905142944 71 40 0.0 0.0 0.00 0.41 0.41 98 1014.6
20260905142443 71 43 0.0 0.0 0.00 0.41 0.41 98 1014.1
20260905141939 71 47 0.0 0.0 0.00 0.41 0.41 99 1013.8
20260905141433 71 2 0.0 0.0 0.00 0.41 0.41 99 1013.6
20260905140930 71 266 0.0 0.0 0.00 0.41 0.41 99 1014.1
20260905140425 71 215 0.0 0.0 0.00 0.41 0.41 99 1014.0
20260905135924 71 214 0.0 0.0 0.00 0.41 0.41 99 1013.6
20260905135419 71 350 0.0 0.0 0.00 0.41 0.41 99 1013.5
20260905134915 70 88 0.0 0.0 0.00 0.41 0.41 99 1013.9
20260905134414 70 110 0.0 0.0 0.07 0.41 0.41 99 1013.9
20260905133908 70 127 0.0 0.0 0.07 0.41 0.41 99 1014.5
20260905133403 70 189 0.0 0.0 0.05 0.40 0.40 99 1014.7
20260905132903 70 205 0.0 0.0 0.05 0.40 0.40 99 1014.7
20260905132358 70 208 0.0 0.0 0.07 0.39 0.39 99 1014.8
20260905131858 70 208 0.0 0.0 0.07 0.39 0.39 99 1015.2
20260905131354 70 48 0.0 0.0 0.05 0.38 0.38 99 1015.2
20260905130849 70 47 0.0 0.0 0.12 0.38 0.38 99 1015.1
20260905130347 70 43 0.0 0.0 0.12 0.37 0.37 99 1014.8
20260905125843 71 26 0.0 0.0 0.12 0.36 0.36 99 1015.1
20260905125337 71 8 0.0 0.0 0.12 0.35 0.35 99 1015.2
20260905124834 71 6 0.0 0.0 0.12 0.34 0.34 99 1015.4
20260905124330 71 6 0.0 0.0 0.07 0.33 0.33 99 1015.7
20260905123830 71 252 0.0 0.0 0.05 0.32 0.32 99 1015.5
20260905123327 71 222 0.0 0.0 0.05 0.32 0.32 99 1015.6
20260905122826 71 272 0.0 0.0 0.00 0.31 0.31 99 1015.9
20260905122326 71 277 0.0 0.0 0.07 0.31 0.31 99 1016.1
20260905121821 71 305 0.0 0.0 0.07 0.31 0.31 99 1016.3
20260905121318 71 16 0.0 1.0 0.07 0.30 0.30 99 1016.3
20260905120816 70 11 0.0 0.0 0.12 0.30 0.30 99 1016.3
20260905120311 70 20 0.0 0.0 0.24 0.29 0.29 99 1016.1
20260905115807 70 21 0.0 0.0 0.24 0.27 0.27 99 1015.8
20260905115306 70 20 0.0 0.0 0.24 0.25 0.25 99 1015.5
20260905114806 70 24 0.0 0.0 0.24 0.22 0.22 99 1015.3
20260905114305 69 24 0.0 0.0 0.42 0.21 0.21 99 1014.8
20260905113804 69 20 0.0 0.0 0.35 0.17 0.17 99 1015.1
20260905113300 69 20 0.0 0.0 0.24 0.13 0.13 99 1015.2
20260905112755 69 13 0.0 0.0 0.24 0.11 0.11 99 1014.7
20260905112249 69 13 0.0 0.0 0.54 0.09 0.09 99 1014.6
20260905111744 69 13 0.0 0.0 0.42 0.07 0.07 99 1014.3
20260905111239 69 12 0.0 0.0 0.00 0.00 0.00 99 1014.2
20260905110739 69 12 0.0 0.0 0.00 0.00 0.00 99 1014.0
20260905110233 69 12 0.0 0.0 0.00 0.00 0.00 99 1013.8
20260905105728 69 12 0.0 0.0 0.00 0.00 0.00 99 1013.7
20260905105227 69 12 0.0 0.0 0.00 0.00 0.00 99 1013.8
20260905104722 69 12 0.0 0.0 0.00 0.00 0.00 99 1014.0
20260905104219 69 12 0.0 0.0 0.00 0.00 0.00 99 1013.9
20260905103713 69 12 0.0 0.0 0.00 0.00 0.00 99 1014.0
20260905103209 69 12 0.0 0.0 0.00 0.00 0.00 99 1013.5
20260905102704 68 12 0.0 0.0 0.00 0.00 0.00 99 1013.8
20260905102201 68 12 0.0 0.0 0.00 0.00 0.00 99 1013.8
20260905101659 69 12 0.0 0.0 0.00 0.00 0.00 99 1013.8
20260905101158 69 12 0.0 0.0 0.00 0.00 0.00 99 1013.8
20260905100654 69 12 0.0 0.0 0.00 0.00 0.00 99 1013.8
20260905100149 68 12 0.0 0.0 0.00 0.00 0.00 99 1013.8
20260905095648 68 12 0.0 0.0 0.00 0.00 0.00 99 1013.8
20260905095143 68 12 0.0 0.0 0.00 0.00 0.00 99 1013.8
20260905094638 68 12 0.0 0.0 0.00 0.00 0.00 99 1013.5
20260905094138 68 12 0.0 0.0 0.00 0.00 0.00 99 1013.8
20260905093632 69 12 0.0 0.0 0.00 0.00 0.00 99 1013.8
20260905093128 69 12 0.0 0.0 0.00 0.00 0.00 99 1013.9
20260905092623 69 12 0.0 0.0 0.00 0.00 0.00 99 1013.9
20260905092119 69 12 0.0 0.0 0.00 0.00 0.00 99 1013.9
20260905091618 68 12 0.0 0.0 0.00 0.00 0.00 99 1013.8
20260905091113 68 13 0.0 0.0 0.00 0.00 0.00 99 1013.8
20260905090613 68 12 0.0 0.0 0.00 0.00 0.00 99 1014.1
20260905090109 69 12 0.0 0.0 0.00 0.00 0.00 99 1013.9
20260905085607 69 12 0.0 0.0 0.00 0.00 0.00 99 1013.7
20260905085103 69 12 0.0 0.0 0.00 0.00 0.00 99 1013.7
20260905084601 69 12 0.0 0.0 0.00 0.00 0.00 99 1013.7
20260905084056 69 12 0.0 0.0 0.00 0.00 0.00 99 1013.6
20260905083551 69 12 0.0 0.0 0.00 0.00 0.00 99 1013.7
20260905083048 69 12 0.0 0.0 0.00 0.00 0.00 99 1013.7
20260905082543 69 12 0.0 0.0 0.00 0.00 0.00 99 1013.8
20260905082039 69 12 0.0 0.0 0.00 0.00 0.00 99 1013.6
20260905081537 69 12 0.0 0.0 0.00 0.00 0.00 99 1013.9
20260905081032 69 12 0.0 0.0 0.00 0.00 0.00 99 1013.8
20260905080526 69 12 0.0 0.0 0.00 0.00 0.00 99 1014.0
20260905080022 69 12 0.0 0.0 0.00 0.00 0.00 99 1013.9
20260905075515 69 12 0.0 0.0 0.00 0.00 0.00 99 1013.9
20260905075014 69 12 0.0 0.0 0.00 0.00 0.00 99 1014.0
20260905074504 69 12 0.0 0.0 0.00 0.00 0.00 99 1014.0
20260905073959 69 12 0.0 0.0 0.00 0.00 0.00 99 1014.2
20260905073454 69 12 0.0 0.0 0.00 0.00 0.00 99 1014.2
20260905072950 69 12 0.0 0.0 0.00 0.00 0.00 99 1014.2
20260905072444 69 12 0.0 0.0 0.00 0.00 0.00 99 1014.2
20260905071940 69 12 0.0 0.0 0.00 0.00 0.00 99 1014.2
20260905071437 69 12 0.0 0.0 0.00 0.00 0.00 99 1014.1
20260905070936 69 12 0.0 0.0 0.00 0.00 0.00 99 1014.3
20260905070433 69 12 0.0 0.0 0.00 0.00 0.00 99 1014.2
20260905065932 69 12 0.0 0.0 0.00 0.00 0.00 99 1014.5
20260905065430 69 12 0.0 0.0 0.00 0.00 0.00 99 1014.4
20260905064926 69 13 0.0 0.0 0.00 0.00 0.00 99 1014.6
20260905064421 69 13 0.0 0.0 0.00 0.00 0.00 99 1014.6
20260905063920 69 13 0.0 0.0 0.00 0.00 0.00 99 1014.7
20260905063415 69 13 0.0 0.0 0.00 0.00 0.00 99 1014.9
20260905062912 69 13 0.0 0.0 0.00 0.00 0.00 99 1014.9
20260905062412 69 13 0.0 0.0 0.00 0.00 0.00 99 1015.2
20260905061907 69 13 0.0 0.0 0.00 0.00 0.00 99 1015.2
20260905061401 69 13 0.0 0.0 0.00 0.00 0.00 99 1015.4
20260905060901 69 13 0.0 0.0 0.00 0.00 0.00 99 1015.5
20260905060357 69 13 0.0 0.0 0.00 0.00 0.00 99 1015.5
20260905055856 69 13 0.0 0.0 0.00 0.00 0.00 99 1015.6
20260905055352 69 13 0.0 0.0 0.00 0.00 0.00 99 1015.7
20260905054851 69 13 0.0 0.0 0.00 0.00 0.00 99 1015.6
20260905054347 69 13 0.0 0.0 0.00 0.00 0.00 99 1015.9
20260905053847 70 13 0.0 0.0 0.00 0.00 0.00 99 1015.9
20260905053341 70 13 0.0 0.0 0.00 0.00 0.00 99 1015.9
20260905052837 70 13 0.0 0.0 0.00 0.00 0.00 99 1016.1
20260905052336 70 13 0.0 0.0 0.00 0.00 0.00 99 1016.1
20260905051836 69 13 0.0 0.0 0.00 0.00 0.00 99 1016.2
20260905051332 69 13 0.0 0.0 0.00 0.00 0.00 99 1016.2
20260905050830 69 13 0.0 0.0 0.00 0.00 0.00 99 1016.3
20260905050326 69 13 0.0 0.0 0.00 0.00 0.00 99 1016.2
20260905045825 69 13 0.0 0.0 0.00 0.00 0.00 99 1016.2
20260905045320 69 13 0.0 0.0 0.00 0.00 0.00 99 1016.1
20260905044816 69 13 0.0 0.0 0.00 0.00 0.00 99 1016.1
20260905044311 70 12 0.0 0.0 0.00 0.00 0.00 99 1016.0
20260905043809 69 12 0.0 0.0 0.00 0.00 0.00 99 1016.2
20260905043304 69 12 0.0 0.0 0.00 0.00 0.00 99 1016.0
20260905042805 69 13 0.0 0.0 0.00 0.00 0.00 99 1016.1
20260905042259 69 13 0.0 0.0 0.00 0.00 0.00 99 1016.3
20260905041754 69 13 0.0 0.0 0.00 0.00 0.00 99 1016.2
20260905041250 69 13 0.0 0.0 0.00 0.00 0.00 99 1016.2
20260905040750 69 13 0.0 0.0 0.00 0.00 0.00 99 1016.3
20260905040248 69 13 0.0 0.0 0.00 0.75 0.75 99 1016.4
20260905035743 69 13 0.0 0.0 0.00 0.75 0.75 99 1016.3
20260905035240 69 13 0.0 0.0 0.00 0.75 0.75 99 1016.3
20260905034737 70 13 0.0 0.0 0.00 0.75 0.75 99 1016.3
20260905034236 70 13 0.0 0.0 0.00 0.75 0.75 99 1016.5
20260905033735 70 13 0.0 0.0 0.00 0.75 0.75 99 1016.3
20260905033231 70 13 0.0 0.0 0.00 0.75 0.75 99 1016.2
20260905032730 70 13 0.0 0.0 0.00 0.75 0.75 99 1016.3
20260905032225 70 13 0.0 0.0 0.00 0.75 0.75 99 1016.3
20260905031721 70 13 0.0 0.0 0.00 0.75 0.75 99 1016.0
20260905031216 70 12 0.0 0.0 0.00 0.75 0.75 99 1016.2
20260905030711 70 12 0.0 0.0 0.00 0.75 0.75 99 1016.1
20260905030201 70 12 0.0 0.0 0.00 0.75 0.75 99 1016.3
20260905025656 70 12 0.0 0.0 0.00 0.75 0.75 99 1016.4
20260905025151 70 12 0.0 0.0 0.00 0.75 0.75 99 1016.4
20260905024647 70 12 0.0 0.0 0.00 0.75 0.75 99 1016.2
20260905024143 70 12 0.0 0.0 0.00 0.75 0.75 99 1016.5
20260905023638 70 12 0.0 0.0 0.00 0.75 0.75 99 1016.2
20260905023137 70 12 0.0 0.0 0.00 0.75 0.75 99 1016.3
20260905022636 71 12 0.0 0.0 0.00 0.75 0.75 99 1016.3
20260905022131 70 12 0.0 0.0 0.00 0.75 0.75 99 1016.4
20260905021625 70 12 0.0 0.0 0.00 0.75 0.75 99 1016.2
20260905021122 70 12 0.0 0.0 0.00 0.75 0.75 99 1016.1
20260905020621 70 12 0.0 0.0 0.00 0.75 0.75 99 1016.2
20260905020116 70 12 0.0 0.0 0.00 0.75 0.75 99 1015.8
20260905015614 70 12 0.0 0.0 0.00 0.75 0.75 99 1015.9
20260905015109 71 12 0.0 0.0 0.00 0.75 0.75 99 1015.8
20260905014603 71 12 0.0 0.0 0.00 0.75 0.75 99 1015.9
20260905014059 71 12 0.0 0.0 0.00 0.75 0.75 99 1015.6
20260905013555 71 12 0.0 0.0 0.00 0.75 0.75 99 1015.7
20260905013051 71 12 0.0 0.0 0.00 0.75 0.75 99 1015.8
20260905012550 71 12 0.0 0.0 0.00 0.75 0.75 99 1015.7
20260905012047 71 12 0.0 0.0 0.00 0.75 0.75 99 1015.7
20260905011543 71 12 0.0 0.0 0.00 0.75 0.75 99 1015.7
20260905011039 71 12 0.0 0.0 0.00 0.75 0.75 99 1015.6
20260905010539 71 12 0.0 0.0 0.00 0.75 0.75 99 1015.5
20260905010036 71 12 0.0 0.0 0.00 0.75 0.75 99 1015.5
20260905005536 71 12 0.0 0.0 0.00 0.75 0.75 99 1015.2
20260905005031 71 12 0.0 0.0 0.00 0.75 0.75 99 1015.2
20260905004526 71 12 0.0 0.0 0.00 0.75 0.75 99 1015.2
20260905004021 71 12 0.0 0.0 0.00 0.75 0.75 99 1015.1
20260905003517 72 12 0.0 0.0 0.00 0.75 0.75 99 1015.1
20260905003013 72 12 0.0 0.0 0.00 0.75 0.75 99 1014.9
20260905002508 72 12 0.0 0.0 0.00 0.75 0.75 99 1014.8
20260905002008 72 12 0.0 0.0 0.00 0.75 0.75 99 1015.1
20260905001502 72 12 0.0 0.0 0.00 0.75 0.75 99 1015.3
20260905000956 72 12 0.0 0.0 0.00 0.75 0.75 98 1015.3
20260905000454 73 12 0.0 0.0 0.00 0.75 0.75 98 1014.8
20260904235948 73 12 0.0 0.0 0.00 0.75 0.75 98 1014.8
20260904235444 73 13 0.0 0.0 0.00 0.75 0.75 98 1015.2
20260904234943 73 13 0.0 0.0 0.00 0.75 0.75 98 1014.9
20260904234443 73 13 0.0 0.0 0.00 0.75 0.75 98 1014.8
20260904233939 73 13 0.0 0.0 0.00 0.75 0.75 97 1014.9
20260904233434 74 12 0.0 0.0 0.00 0.75 0.75 96 1014.9
20260904232931 74 12 0.0 0.0 0.00 0.75 0.75 95 1015.1
20260904232427 74 12 0.0 0.0 0.00 0.75 0.75 94 1015.1
20260904231923 74 12 0.0 0.0 0.00 0.75 0.75 94 1014.8
20260904231424 74 192 0.0 0.0 0.00 0.75 0.75 94 1014.8
20260904230919 74 192 0.0 0.0 0.00 0.75 0.75 94 1015.1
20260904230417 74 197 0.0 0.0 0.00 0.75 0.75 94 1014.8
20260904225913 74 222 0.0 0.0 0.00 0.75 0.75 93 1015.3
20260904225411 75 222 0.0 0.0 0.00 0.75 0.75 94 1015.4
20260904224910 75 222 0.0 0.0 0.00 0.75 0.75 93 1015.2
20260904224406 75 222 0.0 0.0 0.00 0.75 0.75 91 1015.4
20260904223901 75 222 0.0 0.0 0.00 0.75 0.75 91 1015.4
20260904223400 76 222 0.0 0.0 0.00 0.75 0.75 91 1015.6
20260904222856 76 222 0.0 0.0 0.00 0.75 0.75 90 1015.6
20260904222351 76 109 0.0 0.0 0.00 0.75 0.75 89 1015.9
20260904221850 76 150 0.0 0.0 0.00 0.75 0.75 89 1015.9
20260904221345 77 112 0.0 0.0 0.00 0.75 0.75 88 1016.1
20260904220841 77 144 0.0 0.0 0.00 0.75 0.75 89 1016.0
20260904220339 76 305 0.0 0.0 0.00 0.75 0.75 90 1016.3
20260904215835 76 207 0.0 0.0 0.00 0.75 0.75 89 1016.5
20260904215330 77 268 0.0 0.0 0.00 0.75 0.75 89 1016.3
20260904214826 76 244 0.0 0.0 0.00 0.75 0.75 91 1016.4
20260904214322 76 121 0.0 0.0 0.00 0.75 0.75 90 1016.5
20260904213820 75 144 0.0 0.0 0.00 0.75 0.75 91 1016.5
20260904213315 75 224 0.0 0.0 0.00 0.75 0.75 92 1016.5
20260904212812 74 342 0.0 0.0 0.00 0.75 0.75 93 1016.4
20260904212311 74 139 0.0 1.0 0.00 0.75 0.75 92 1016.4
20260904211807 73 168 0.0 0.0 0.00 0.75 0.75 93 1016.5
20260904211301 74 226 0.0 0.0 0.00 0.75 0.75 94 1016.5
20260904210756 74 85 0.0 0.0 0.00 0.75 0.75 95 1016.7
20260904210250 74 317 0.0 0.0 0.00 0.75 0.75 96 1016.7
20260904205746 73 233 0.0 0.0 0.00 0.75 0.75 96 1016.4
20260904205242 73 155 0.0 0.0 0.00 0.75 0.75 96 1016.4
20260904204739 73 187 0.0 0.0 0.00 0.75 0.75 97 1016.6
20260904204234 72 198 0.0 0.0 0.00 0.75 0.75 97 1016.2
20260904203730 72 156 0.0 0.0 0.00 0.75 0.75 98 1016.2
20260904203226 71 71 0.0 0.0 0.00 0.75 0.75 99 1016.5
20260904202722 71 36 0.0 0.0 0.00 0.75 0.75 99 1016.4
20260904202218 71 177 0.0 0.0 0.00 0.75 0.75 99 1016.7
20260904201713 71 177 0.0 0.0 0.00 0.75 0.75 99 1017.1
20260904201208 71 60 0.0 0.0 0.00 0.75 0.75 99 1017.1
20260904200702 71 61 0.0 0.0 0.00 0.75 0.75 99 1016.6
20260904200152 71 61 0.0 0.0 0.00 0.75 0.75 99 1016.8
20260904195650 70 61 0.0 0.0 0.00 0.75 0.75 99 1016.7
20260904195149 70 61 0.0 0.0 0.00 0.75 0.75 99 1016.6
20260904194643 70 61 0.0 0.0 0.00 0.75 0.75 99 1016.6
20260904194138 70 322 0.0 0.0 0.00 0.75 0.75 99 1016.6
20260904193632 70 294 0.0 0.0 0.00 0.75 0.75 99 1016.8
20260904193129 70 294 0.0 0.0 0.00 0.75 0.75 99 1017.0
20260904192629 70 294 0.0 0.0 0.00 0.75 0.75 99 1017.3
20260904192124 70 294 0.0 0.0 0.00 0.75 0.75 99 1017.4
20260904191621 70 295 0.0 0.0 0.00 0.75 0.75 99 1017.6
20260904191118 70 236 0.0 0.0 0.00 0.75 0.75 99 1017.7
20260904190613 70 261 0.0 0.0 0.00 0.75 0.75 99 1018.1
20260904190104 70 84 0.0 0.0 0.12 0.75 0.75 98 1018.0
20260904185600 70 237 0.0 1.0 2.34 0.75 0.75 97 1017.9
20260904185054 70 251 0.0 1.0 4.39 0.73 0.73 96 1018.8
20260904184548 72 310 0.0 6.0 2.17 0.36 0.36 95 1019.3
20260904184044 85 35 8.0 25.0 0.00 0.00 0.00 79 1017.2
20260904183544 86 271 0.0 0.0 0.00 0.00 0.00 80 1015.5
20260904183039 87 271 0.0 0.0 0.00 0.00 0.00 78 1014.9
20260904182534 88 271 0.0 0.0 0.00 0.00 0.00 74 1015.3
20260904182029 89 302 0.0 0.0 0.00 0.00 0.00 72 1014.9
20260904181525 89 307 0.0 0.0 0.00 0.00 0.00 69 1014.8
20260904181025 90 267 0.0 0.0 0.00 0.00 0.00 67 1014.8
20260904180519 90 249 0.0 0.0 0.00 0.00 0.00 68 1015.2
20260904180014 90 251 0.0 0.0 0.00 0.00 0.00 67 1015.3
20260904175508 91 249 0.0 0.0 0.00 0.00 0.00 69 1015.5
20260904175001 90 305 0.0 0.0 0.00 0.00 0.00 70 1015.5
20260904174457 89 250 0.0 0.0 0.00 0.00 0.00 69 1015.8
20260904173954 90 300 0.0 0.0 0.00 0.00 0.00 69 1016.0
20260904173453 90 246 0.0 0.0 0.00 0.00 0.00 68 1016.1
20260904172948 91 239 0.0 0.0 0.00 0.00 0.00 67 1016.1
20260904172443 91 246 0.0 1.0 0.00 0.00 0.00 67 1016.4
20260904171938 90 238 0.0 0.0 0.00 0.00 0.00 71 1016.4
20260904171434 91 307 0.0 0.0 0.00 0.00 0.00 70 1016.7
20260904170930 90 296 0.0 0.0 0.00 0.00 0.00 69 1016.7
20260904170424 90 237 0.0 0.0 0.00 0.00 0.00 69 1016.8
20260904165920 90 218 0.0 1.0 0.00 0.00 0.00 69 1016.7
20260904165419 90 265 0.0 0.0 0.00 0.00 0.00 70 1016.8
20260904164913 90 175 0.0 0.0 0.00 0.00 0.00 70 1016.7
20260904164413 90 340 0.0 0.0 0.00 0.00 0.00 69 1016.7
20260904163909 89 7 0.0 0.0 0.00 0.00 0.00 69 1017.1
20260904163409 89 250 0.0 0.0 0.00 0.00 0.00 69 1016.8
20260904162908 89 278 0.0 0.0 0.00 0.00 0.00 71 1017.0
20260904162404 89 311 0.0 0.0 0.00 0.00 0.00 72 1017.0
20260904161859 89 275 0.0 0.0 0.00 0.00 0.00 74 1016.9
20260904161354 89 286 0.0 0.0 0.00 0.00 0.00 70 1017.0
20260904160850 88 284 0.0 0.0 0.00 0.00 0.00 74 1017.2
20260904160344 88 263 0.0 0.0 0.00 0.00 0.00 73 1017.2
20260904155839 88 282 0.0 0.0 0.00 0.00 0.00 73 1017.3
20260904155334 88 277 0.0 0.0 0.00 0.00 0.00 74 1017.1
20260904154832 87 7 0.0 0.0 0.00 0.00 0.00 76 1017.1